Terug naar catalogus

GRUS-3E

ActiefWetenschapSSO
NORAD 69898·PAYLOAD·🇺🇸 United States

Gelanceerd Jul 7, 2026 vanaf Vandenberg Space Force Base

Loading…

Volgende Passages (komende 24 uur)

TLE

VersSource: Space-Track

Epoch: Sep 13, 2026, 16:54 UTC

1 69898U 26156AF  26256.70453905  .00000564  00000-0  61804-4 0  9992
2 69898  97.7467 155.9979 0004000 283.9631  76.1142 14.91551267 10196

Volg GRUS-3E in realtime met AllMySat

Download on the App Store